Powrót do katalogu

ORBCOMM FM 18

AktywnyŁącznośćLEO
NORAD 25414·PAYLOAD·🇺🇸 United States

Wystrzelony Aug 2, 1998 z Cape Canaveral Space Force Station

Loading…

Następne Przeloty (najbliższe 24 godziny)

TLE

ŚwieżeSource: Space-Track

Epoka: Sep 13, 2026, 19:50 UTC

1 25414U 98046B   26256.82701925  .00000668  00000-0  25610-3 0  9995
2 25414  44.9916 179.5122 0005550  26.3575 333.7555 14.39796096469601

Śledź ORBCOMM FM 18 w czasie rzeczywistym z AllMySat

Download on the App Store